Waarnemingen

Advertentie
Mijn weer
Charleville, Frankrijk (7075): temperatuur & dauwpunt: 15.01.2017 11:00:00 - 21.01.2017 11:00:00 (CET)Charleville, Frankrijk (7075): temperatuur 5cm: 15.01.2017 11:00:00 - 21.01.2017 11:00:00 (CET)Charleville, Frankrijk (7075): temperatuur -20cm & temperatuur -100cm: 15.01.2017 11:00:00 - 21.01.2017 11:00:00 (CET)Charleville, Frankrijk (7075): windsnelheid & windstoten: 15.01.2017 11:00:00 - 21.01.2017 11:00:00 (CET)Charleville, Frankrijk (7075): windrichting: 15.01.2017 11:00:00 - 21.01.2017 11:00:00 (CET)Charleville, Frankrijk (7075): luchtdruk: 15.01.2017 11:00:00 - 21.01.2017 11:00:00 (CET)Charleville, Frankrijk (7075): zicht: 15.01.2017 11:00:00 - 21.01.2017 11:00:00 (CET)Charleville, Frankrijk (7075): Zonneschijnduur: 15.01.2017 11:00:00 - 21.01.2017 11:00:00 (CET)Charleville, Frankrijk (7075): neerslag: 15.01.2017 11:00:00 - 21.01.2017 11:00:00 (CET)
Datum & Tijd tt [°C] td [°C] tt 5cm [°C] tt -20cm [°C] tt -100cm [°C] ff [km/u] ff [kn] fx [km/u] fx [kn] dd ppp [hPa] vv [km] sd [min] rr [mm]
21.01.2017 11:00:00 -1,2 -6,9 -2,0 1,5 6,6 8 4 14 8 OZO 1030,2 20 60 0,0
21.01.2017 10:00:00 -6,0 -7,4 -10,0 1,6 6,7 1 1 5 3 NNW 1030,7 20 60 0,0
21.01.2017 09:00:00 -10,2 -11,4 -14,3 1,5 6,7 1 1 4 2 WNW 1030,6 20 4 0,0
21.01.2017 08:00:00 -10,6 -11,5 -14,3 1,5 6,7 3 1 4 2 WZW 1030,6 19 0 0,0
21.01.2017 07:00:00 -10,7 -11,9 -14,2 1,6 6,6 1 1 4 2 ZZO 1030,6 19 0 0,0
21.01.2017 06:00:00 -10,1 -11,2 -13,6 1,6 6,7 1 1 5 3 N 1030,8 20 0 0,0
21.01.2017 05:00:00 -10,2 -11,1 -13,8 1,6 6,7 4 2 6 3 OZO 1030,7 20 0 0,0
21.01.2017 04:00:00 -9,8 -10,9 -13,9 1,6 6,7 2 1 6 3 NW 1030,9 20 0 0,0
21.01.2017 03:00:00 -9,5 -10,6 -13,5 1,6 6,7 2 1 6 3 W 1031,1 20 0 0,0
21.01.2017 02:00:00 -9,0 -10,1 -13,1 1,6 6,7 3 1 5 3 WNW 1031,2 18 0 0,0
21.01.2017 01:00:00 -8,6 -9,7 -13,1 1,6 6,7 1 1 5 3 NW 1031,5 19 0 0,0
21.01.2017 00:00:00 -8,2 -9,4 -12,1 1,6 6,7 2 1 3 2 WNW 1031,7 20 0 0,0
20.01.2017 23:00:00 -8,0 -9,8 -12,1 1,6 6,7 2 1 5 3 ZZO 1031,8 18 0 0,0
20.01.2017 22:00:00 -6,4 -7,9 -11,5 1,6 6,7 2 1 4 2 NW 1031,9 20 0 0,0
20.01.2017 21:00:00 -6,6 -8,3 -11,2 1,6 6,7 1 1 3 2 ZW 1031,9 19 0 0,0
20.01.2017 20:00:00 -4,4 -7,5 -9,5 1,6 6,7 2 1 5 3 WNW 1031,7 20 0 0,0
20.01.2017 19:00:00 -3,9 -7,2 -8,9 1,7 6,7 3 2 7 4 NO 1031,3 20 0 0,0
20.01.2017 18:00:00 -0,6 -7,0 -5,9 1,7 6,7 4 2 20 11 O 1030,9 20 0 0,0
20.01.2017 17:00:00 2,6 -6,5 -0,4 1,6 6,7 13 7 19 11 ONO 1030,7 20 42 0,0
20.01.2017 16:00:00 6,1 -5,3 4,0 1,7 6,7 8 4 29 16 OZO 1030,5 20 16 0,0
20.01.2017 15:00:00 5,5 -7,4 8,5 1,7 6,7 18 10 27 14 OZO 1030,6 20 27 0,0
20.01.2017 14:00:00 5,5 -6,4 10,3 1,6 6,7 11 6 19 11 OZO 1030,9 20 60 0,0
20.01.2017 13:00:00 4,4 -6,8 9,1 1,7 6,8 10 5 16 9 ZZO 1031,7 20 60 0,0
20.01.2017 12:00:00 2,8 -7,1 7,2 1,7 6,8 8 5 23 13 ZO 1032,3 20 60 0,0
20.01.2017 11:00:00 2,0 -7,6 3,5 1,7 6,8 13 7 24 13 O 1032,7 20 60 0,0
20.01.2017 10:00:00 0,3 -7,5 -3,2 1,7 6,8 16 8 27 14 OZO 1033,0 20 60 0,0
20.01.2017 09:00:00 -3,1 -8,6 -7,8 1,7 6,8 5 3 14 7 ZO 1033,1 20 3 0,0
20.01.2017 08:00:00 -2,8 -9,1 -9,7 1,8 6,8 8 4 14 7 ZO 1033,0 20 0 0,0
20.01.2017 07:00:00 -4,3 -9,7 -9,8 1,8 6,8 10 5 19 11 O 1033,2 20 0 0,0
20.01.2017 06:00:00 -6,9 -10,1 -9,8 1,8 6,8 4 2 8 4 O 1033,4 20 0 0,0
20.01.2017 05:00:00 -6,8 -9,5 -10,3 1,8 6,8 3 2 9 5 NNO 1033,7 20 0 0,0
20.01.2017 04:00:00 -5,5 -9,9 -9,8 1,8 6,8 6 3 10 6 O 1033,5 20 0 0,0
20.01.2017 03:00:00 -3,2 -8,9 -7,6 1,8 6,8 5 3 15 8 ZZW 1033,8 20 0 0,0
20.01.2017 02:00:00 -3,9 -8,4 -9,6 1,8 6,8 5 3 10 5 W 1034,0 20 0 0,0
20.01.2017 01:00:00 -4,2 -9,0 -8,0 1,8 6,8 3 2 9 5 WZW 1034,5 20 0 0,0
20.01.2017 00:00:00 -3,2 -8,3 -9,1 1,8 6,8 3 1 12 6 OZO 1034,6 20 0 0,0
19.01.2017 23:00:00 -2,3 -8,8 -6,9 1,8 6,8 5 3 14 8 O 1034,7 20 0 0,0
19.01.2017 22:00:00 -1,5 -8,3 -5,6 1,8 6,8 8 5 19 10 OZO 1034,8 20 0 0,0
19.01.2017 21:00:00 -2,3 -8,0 -7,4 1,8 6,8 10 6 24 13 O 1034,9 20 0 0,0
19.01.2017 20:00:00 -3,2 -7,9 -7,9 1,9 6,9 10 5 18 10 ONO 1034,8 20 0 0,0
19.01.2017 19:00:00 -1,1 -7,5 -7,6 1,9 6,9 3 1 18 10 O 1034,5 20 0 0,0
19.01.2017 18:00:00 -1,5 -7,0 -6,9 1,9 6,8 5 3 16 9 NO 1034,5 20 0 0,0
19.01.2017 17:00:00 1,2 -7,1 -2,4 1,9 6,8 6 3 20 11 NO 1034,2 20 40 0,0
19.01.2017 16:00:00 2,9 -7,3 1,8 1,9 6,9 11 6 25 14 ONO 1033,9 20 16 0,0
19.01.2017 15:00:00 3,2 -6,8 6,3 1,9 6,9 15 8 25 14 ONO 1034,2 20 26 0,0
19.01.2017 14:00:00 3,1 -7,1 7,1 1,9 6,9 15 8 25 14 O 1034,3 20 60 0,0
19.01.2017 13:00:00 2,2 -7,2 6,4 1,9 6,9 16 9 27 15 O 1035,0 20 60 0,0
19.01.2017 12:00:00 1,0 -7,5 4,6 1,9 6,9 10 6 23 12 O 1035,6 18 60 0,0
19.01.2017 11:00:00 -0,7 -7,3 0,7 2,0 6,9 10 6 23 12 O 1035,7 17 60 0,0
19.01.2017 10:00:00 -2,5 -6,7 -7,4 2,0 6,9 9 5 20 11 O 1035,5 16 60 0,0
19.01.2017 09:00:00 -7,7 -9,9 -11,3 2,0 6,9 1 1 6 3 WZW 1035,8 13 2 0,0
19.01.2017 08:00:00 -6,6 -9,8 -11,1 2,0 6,9 3 2 8 5 WZW 1035,5 17 0 0,0
19.01.2017 07:00:00 -5,2 -9,8 -9,9 2,0 6,9 3 2 7 4 Z 1035,1 20 0 0,0
19.01.2017 06:00:00 -5,3 -10,1 -10,0 2,0 6,9 3 2 12 6 O 1035,2 20 0 0,0
19.01.2017 05:00:00 -7,1 -8,9 -12,3 2,1 6,9 4 2 11 6 NNO 1035,3 20 0 0,0
19.01.2017 04:00:00 -8,0 -9,6 -12,3 2,1 6,9 4 2 7 4 Z 1035,7 16 0 0,0
19.01.2017 03:00:00 -7,3 -10,8 -11,1 2,1 6,9 3 2 5 3 ZO 1035,6 18 0 0,0
19.01.2017 02:00:00 -6,2 -9,7 -10,8 2,1 6,9 3 1 12 7 NNO 1035,8 20 0 0,0
19.01.2017 01:00:00 -6,7 -9,6 -11,0 2,1 6,9 9 5 12 7 NO 1036,3 20 0 0,0
19.01.2017 00:00:00 -5,0 -9,4 -9,2 2,1 6,9 5 3 16 9 O 1036,3 20 0 0,0
18.01.2017 23:00:00 -4,9 -9,4 -9,2 2,2 6,9 5 3 10 6 OZO 1036,3 20 0 0,0
18.01.2017 22:00:00 -3,7 -8,8 -7,9 2,2 6,9 6 3 12 7 ONO 1036,2 20 0 0,0
18.01.2017 21:00:00 -3,6 -8,3 -8,3 2,2 6,9 3 2 9 5 ONO 1036,0 20 0 0,0
18.01.2017 20:00:00 -3,2 -8,1 -7,4 2,2 6,9 2 1 10 5 Z 1036,2 20 0 0,0
18.01.2017 19:00:00 -1,9 -8,0 -5,2 2,2 6,9 9 5 27 15 NO 1036,2 20 0 0,0
18.01.2017 18:00:00 -1,5 -7,8 -4,1 2,2 6,9 8 5 22 12 ONO 1036,2 20 0 0,0
18.01.2017 17:00:00 -0,8 -7,6 -2,5 2,2 6,9 11 6 25 13 NO 1036,3 20 39 0,0
18.01.2017 16:00:00 -0,1 -6,9 -1,1 2,2 6,9 10 5 22 12 NO 1035,8 20 1 0,0
18.01.2017 15:00:00 1,7 -6,4 4,6 2,3 7,0 9 5 25 14 NO 1035,7 20 35 0,0
18.01.2017 14:00:00 1,0 -7,5 4,7 2,3 6,9 16 8 23 13 ONO 1035,9 20 60 0,0
18.01.2017 13:00:00 0,3 -7,0 3,9 2,3 6,9 13 7 25 13 ONO 1036,2 20 60 0,0
18.01.2017 12:00:00 -1,2 -7,4 2,8 2,3 6,9 14 8 23 12 O 1036,8 20 60 0,0
18.01.2017 11:00:00 -2,6 -7,1 0,1 2,4 7,0 12 7 22 12 O 1037,5 20 60 0,0
18.01.2017 10:00:00 -3,8 -7,9 -5,8 2,4 7,0 8 4 15 8 ONO 1037,5 20 60 0,0
18.01.2017 09:00:00 -5,6 -8,8 -9,9 2,4 7,0 3 1 11 6 Z 1037,3 20 1 0,0
18.01.2017 08:00:00 -6,1 -9,2 -9,5 2,5 7,0 6 3 18 10 ZO 1037,1 20 0 0,0
18.01.2017 07:00:00 -5,5 -9,1 -9,3 2,5 7,0 9 5 25 14 O 1036,9 20 0 0,0
18.01.2017 06:00:00 -6,0 -8,9 -10,4 2,5 7,0 6 3 21 11 OZO 1036,8 20 0 0,0
18.01.2017 05:00:00 -5,8 -8,9 -9,5 2,5 7,0 8 4 13 7 Z 1036,8 20 0 0,0
18.01.2017 04:00:00 -6,7 -9,3 -10,2 2,6 7,0 3 1 12 7 WZW 1036,9 20 0 0,0
18.01.2017 03:00:00 -6,6 -8,9 -10,0 2,6 7,0 6 3 9 5 W 1037,5 18 0 0,0
18.01.2017 02:00:00 -5,5 -8,4 -9,2 2,6 7,0 4 2 12 7 Z 1037,4 20 0 0,0
18.01.2017 01:00:00 -5,3 -7,9 -8,7 2,6 7,0 6 4 11 6 Z 1037,4 17 0 0,0
18.01.2017 00:00:00 -4,7 -7,5 -9,0 2,7 7,0 3 2 14 8 ZZO 1037,5 17 0 0,0
17.01.2017 23:00:00 -4,4 -7,3 -7,0 2,7 7,0 6 3 20 11 O 1037,3 20 0 0,0
17.01.2017 22:00:00 -4,0 -6,9 -7,1 2,7 7,0 10 6 19 10 NO 1037,4 20 0 0,0
17.01.2017 21:00:00 -3,9 -7,0 -7,5 2,7 7,0 6 3 19 10 ONO 1037,3 20 0 0,0
17.01.2017 20:00:00 -3,9 -6,1 -9,4 2,8 7,0 4 2 19 10 NNO 1037,2 20 0 0,0
17.01.2017 19:00:00 -4,3 -7,2 -9,4 2,8 7,0 2 1 11 6 NO 1036,9 20 0 0,0
17.01.2017 18:00:00 -3,0 -6,8 -7,1 2,8 7,0 4 2 19 11 N 1036,3 20 0 0,0
17.01.2017 17:00:00 -2,1 -6,5 -3,9 2,8 7,0 9 5 23 13 NO 1036,2 20 38 0,0
17.01.2017 16:00:00 -1,0 -5,8 -1,5 2,9 7,0 11 6 26 14 ONO 1035,9 20 28 0,0
17.01.2017 15:00:00 -1,2 -5,8 1,6 2,9 7,0 15 8 26 14 ONO 1035,9 20 60 0,0
17.01.2017 14:00:00 -1,9 -5,6 -0,3 2,9 7,0 11 6 29 16 ONO 1036,2 20 46 0,0
17.01.2017 13:00:00 -2,8 -6,3 -2,0 2,9 7,0 15 8 25 13 ONO 1036,8 20 27 0,0
17.01.2017 12:00:00 -3,7 -6,5 -4,8 3,0 7,0 10 5 22 12 NNO 1037,3 20 12 0,0
17.01.2017 11:00:00 -5,5 -7,6 -6,1 3,0 7,0 12 6 30 16 ONO 1037,3 18 19 0,0
17.01.2017 10:00:00 -5,4 -6,1 -10,9 3,1 7,0 8 4 10 6 O 1036,9 12 53 0,0
17.01.2017 09:00:00 -8,9 -9,8 -13,7 3,1 7,0 1 1 6 3 ONO 1036,3 12 0 0,0
17.01.2017 08:00:00 -9,9 -11,0 -13,7 3,2 7,0 2 1 5 3 OZO 1035,8 12 0 0,0
17.01.2017 07:00:00 -9,2 -10,3 -13,2 3,3 7,0 3 1 7 4 N 1035,0 12 0 0,0
17.01.2017 06:00:00 -9,2 -10,3 -13,2 3,3 7,0 3 2 6 3 N 1034,3 12 0 0,0
17.01.2017 05:00:00 -8,2 -9,1 -12,7 3,4 7,0 4 2 11 6 W 1034,0 10 0 0,0
17.01.2017 04:00:00 -8,5 -9,3 -13,0 3,4 7,0 2 1 9 5 W 1033,8 11 0 0,0
17.01.2017 03:00:00 -7,8 -8,5 -13,2 3,5 7,0 2 1 4 2 WNW 1033,5 4,9 0 0,0
17.01.2017 02:00:00 -7,4 -8,2 -12,2 3,5 7,0 2 1 6 4 WNW 1033,0 8 0 0,0
17.01.2017 01:00:00 -6,5 -7,2 -11,1 3,5 7,0 3 2 7 4 WNW 1032,8 6 0 0,0
17.01.2017 00:00:00 -6,4 -6,9 -11,5 3,6 7,0 3 2 5 3 WNW 1032,5 5 0 0,0
16.01.2017 23:00:00 -6,5 -7,3 -10,9 3,6 7,0 2 1 6 3 WNW 1032,0 3,6 0 0,0
16.01.2017 22:00:00 -4,7 -5,2 -9,5 3,7 7,0 1 1 10 5 WZW 1031,4 4,8 0 0,0
16.01.2017 21:00:00 -3,7 -4,2 -8,4 3,7 7,1 6 3 11 6 N 1030,7 6 0 0,0
16.01.2017 20:00:00 -3,9 -4,6 -7,0 3,7 7,1 3 1 9 5 N 1030,0 4,1 0 0,0
16.01.2017 19:00:00 -2,7 -3,5 -5,6 3,7 7,0 5 3 9 5 NNW 1029,3 8 0 0,0
16.01.2017 18:00:00 -0,6 -2,8 -4,5 3,7 7,0 5 3 13 7 NO 1028,5 17 0 0,0
16.01.2017 17:00:00 0,7 -2,4 -0,9 3,7 7,0 6 3 19 11 NNW 1027,7 20 35 0,0
16.01.2017 16:00:00 2,1 -2,1 0,8 3,6 7,1 11 6 19 11 NO 1027,3 20 35 0,0
16.01.2017 15:00:00 1,8 -0,6 1,5 3,6 7,0 4 2 11 6 N 1026,9 20 0 0,0
16.01.2017 14:00:00 1,7 0,4 2,1 3,6 7,0 10 5 16 9 NW 1026,7 14 4 0,0
16.01.2017 13:00:00 0,8 0,4 1,5 3,6 7,0 5 3 9 5 W 1027,0 2,9 0 0,4
16.01.2017 12:00:00 0,4 -0,2 0,5 3,6 7,0 6 3 12 7 WNW 1027,0 1,4 0 0,0
16.01.2017 11:00:00 0,1 -0,2 -0,1 3,6 7,0 5 3 9 5 NW 1027,0 4,6 0 0,0
16.01.2017 10:00:00 -0,6 -0,9 -1,3 3,7 7,1 1 1 8 5 Z 1026,7 4,8 0 0,0
16.01.2017 09:00:00 -0,5 -0,8 -2,5 3,7 7,1 4 2 7 4 NNW 1026,3 6 0 0,0
16.01.2017 08:00:00 -1,5 -1,8 -3,1 3,6 7,0 3 2 5 3 ZO 1026,1 2,8 0 0,0
16.01.2017 07:00:00 -0,6 -0,9 -1,7 3,7 7,1 4 2 10 5 NNW 1025,5 5 0 0,0
16.01.2017 06:00:00 -0,5 -0,8 -2,4 3,7 7,1 5 3 8 4 NW 1025,0 2,2 0 0,0
16.01.2017 05:00:00 -0,3 -0,6 -1,5 3,7 7,1 2 1 5 3 NO 1024,7 2,4 0 0,0
16.01.2017 04:00:00 0,2 -0,1 0,1 3,7 7,0 6 3 11 6 NW 1024,5 3,0 0 0,0
16.01.2017 03:00:00 0,2 -0,1 0,1 3,7 7,1 3 2 8 4 NW 1024,3 2,8 0 0,0
16.01.2017 02:00:00 0,2 -0,1 0,1 3,7 7,0 4 2 7 4 WNW 1023,9 2,5 0 0,0
16.01.2017 01:00:00 0,3 0,0 -0,1 3,7 7,1 3 2 4 2 WNW 1024,0 2,9 0 0,0
16.01.2017 00:00:00 0,4 0,0 0,0 3,7 7,1 3 1 8 5 ZO 1024,0 5 0 0,0
15.01.2017 23:00:00 0,4 0,1 -0,1 3,7 7,0 7 4 11 6 ONO 1023,6 3,2 0 0,0
15.01.2017 22:00:00 0,4 0,1 0,3 3,7 7,0 4 2 6 3 WNW 1023,5 3,6 0 0,0
15.01.2017 21:00:00 0,5 0,2 0,2 3,7 7,0 3 1 5 3 ZZW 1023,5 4,7 0 0,0
15.01.2017 20:00:00 0,3 0,0 0,1 3,7 7,1 3 2 5 3 ONO 1023,4 4,3 0 0,0
15.01.2017 19:00:00 0,3 0,0 0,1 3,7 7,1 2 1 5 3 WZW 1023,2 3,9 0 0,0
15.01.2017 18:00:00 0,3 -0,1 0,1 3,7 7,1 1 1 4 2 O 1023,1 3,6 0 0,0
15.01.2017 17:00:00 0,5 -0,1 0,2 3,7 7,1 1 1 5 3 NW 1023,0 3,6 0 0,2
15.01.2017 16:00:00 0,9 0,2 1,1 3,7 7,0 4 2 9 5 WNW 1023,2 4,7 0 0,0
15.01.2017 15:00:00 1,2 0,2 1,2 3,7 7,1 5 3 9 5 ZW 1023,0 4,5 0 0,2
15.01.2017 14:00:00 1,6 0,3 2,2 3,7 7,1 4 2 11 6 WZW 1023,1 12 0 0,0
15.01.2017 13:00:00 1,6 0,3 2,2 3,7 7,1 3 2 11 6 W 1023,5 11 0 0,0
15.01.2017 12:00:00 1,4 -0,1 1,8 3,7 7,1 5 3 11 6 W 1023,9 13 0 0,0
15.01.2017 11:00:00 1,1 -0,4 1,1 3,7 7,0 3 2 7 4 ZW 1023,8 15 0 0,0

tt = temperatuur
td = dauwpunt
tt 5cm = temperatuur 5cm
tt -20cm = temperatuur -20cm
tt -100cm = temperatuur -100cm
ff = windsnelheid
fx = windstoten
dd = windrichting
ppp = luchtdruk
vv = zicht
sd = Zonneschijnduur
rr = neerslag

Weerstations in de omgeving